| time (UTC) | temp C | wind direction | speed KPH | gust KPH | rain 1hr cm | rain 24hr cm | rain mn cm | humidity % | barometer mb |
| 20260507131025 | 13 | 96 | 3.2 | 4.8 | 0.00 | 0.00 | 0.00 | 98 | 1018.7 |
| 20260507130521 | 13 | 103 | 0.0 | 3.2 | 0.00 | 0.00 | 0.00 | 98 | 1018.7 |
| 20260507130020 | 13 | 74 | 0.0 | 3.2 | 0.00 | 0.00 | 0.00 | 98 | 1018.7 |
| 20260507125518 | 13 | 99 | 3.2 | 3.2 | 0.00 | 0.00 | 0.00 | 98 | 1018.5 |
| 20260507125015 | 12 | 118 | 3.2 | 4.8 | 0.00 | 0.00 | 0.00 | 98 | 1018.3 |
| 20260507124511 | 12 | 82 | 1.6 | 3.2 | 0.00 | 0.00 | 0.00 | 98 | 1018.5 |
| 20260507124009 | 12 | 133 | 1.6 | 3.2 | 0.00 | 0.00 | 0.00 | 98 | 1018.3 |
| 20260507123507 | 12 | 165 | 3.2 | 3.2 | 0.00 | 0.00 | 0.00 | 98 | 1018.2 |
| 20260507123003 | 12 | 102 | 3.2 | 3.2 | 0.00 | 0.00 | 0.00 | 98 | 1018.4 |
| 20260507122458 | 12 | 49 | 0.0 | 3.2 | 0.00 | 0.00 | 0.00 | 98 | 1018.5 |
| 20260507121955 | 12 | 133 | 3.2 | 3.2 | 0.00 | 0.00 | 0.00 | 98 | 1018.2 |
| 20260507121450 | 12 | 123 | 3.2 | 3.2 | 0.00 | 0.00 | 0.00 | 98 | 1018.2 |
| 20260507120947 | 12 | 115 | 3.2 | 3.2 | 0.00 | 0.00 | 0.00 | 98 | 1018.4 |
| 20260507120443 | 12 | 89 | 0.0 | 3.2 | 0.00 | 0.00 | 0.00 | 98 | 1018.3 |
| 20260507115940 | 12 | 47 | 1.6 | 3.2 | 0.00 | 0.00 | 0.00 | 98 | 1018.3 |
| 20260507115436 | 12 | 95 | 0.0 | 3.2 | 0.00 | 0.00 | 0.00 | 98 | 1018.2 |
| 20260507114932 | 12 | 102 | 3.2 | 4.8 | 0.00 | 0.00 | 0.00 | 98 | 1018.2 |
| 20260507114428 | 11 | 70 | 1.6 | 3.2 | 0.00 | 0.00 | 0.00 | 98 | 1018.4 |
| 20260507113926 | 11 | 145 | 0.0 | 3.2 | 0.00 | 0.00 | 0.00 | 98 | 1018.4 |
| 20260507113423 | 11 | 103 | 0.0 | 3.2 | 0.00 | 0.00 | 0.00 | 98 | 1018.2 |
| 20260507112920 | 11 | 108 | 3.2 | 4.8 | 0.00 | 0.00 | 0.00 | 98 | 1018.2 |
| 20260507112417 | 11 | 70 | 0.0 | 3.2 | 0.00 | 0.00 | 0.00 | 98 | 1018.4 |
| 20260507111914 | 11 | 68 | 1.6 | 3.2 | 0.00 | 0.00 | 0.00 | 98 | 1018.3 |
| 20260507111412 | 11 | 120 | 3.2 | 3.2 | 0.00 | 0.00 | 0.00 | 98 | 1018.2 |
| 20260507110908 | 11 | 124 | 3.2 | 3.2 | 0.00 | 0.00 | 0.00 | 98 | 1018.3 |
| 20260507110404 | 11 | 78 | 0.0 | 3.2 | 0.00 | 0.00 | 0.00 | 98 | 1018.2 |
| 20260507105901 | 11 | 87 | 3.2 | 3.2 | 0.00 | 0.00 | 0.00 | 98 | 1018.4 |
| 20260507105357 | 11 | 106 | 3.2 | 3.2 | 0.00 | 0.00 | 0.00 | 98 | 1018.4 |
| 20260507104854 | 11 | 105 | 1.6 | 3.2 | 0.00 | 0.00 | 0.00 | 98 | 1018.4 |
| 20260507104351 | 11 | 118 | 1.6 | 3.2 | 0.00 | 0.00 | 0.00 | 98 | 1018.5 |
| 20260507103847 | 11 | 122 | 1.6 | 4.8 | 0.00 | 0.00 | 0.00 | 98 | 1018.7 |
| 20260507103344 | 11 | 124 | 0.0 | 3.2 | 0.00 | 0.00 | 0.00 | 98 | 1018.5 |
| 20260507102840 | 11 | 131 | 0.0 | 3.2 | 0.00 | 0.00 | 0.00 | 97 | 1018.7 |
| 20260507102336 | 11 | 128 | 1.6 | 3.2 | 0.00 | 0.00 | 0.00 | 97 | 1018.7 |
| 20260507101833 | 11 | 129 | 0.0 | 3.2 | 0.00 | 0.00 | 0.00 | 97 | 1018.6 |
| 20260507101327 | 11 | 97 | 3.2 | 3.2 | 0.00 | 0.00 | 0.00 | 97 | 1018.8 |
| 20260507100824 | 11 | 66 | 3.2 | 3.2 | 0.00 | 0.00 | 0.00 | 97 | 1018.8 |
| 20260507100323 | 11 | 136 | 1.6 | 3.2 | 0.00 | 0.00 | 0.00 | 97 | 1018.8 |
| 20260507095821 | 11 | 111 | 1.6 | 3.2 | 0.00 | 0.00 | 0.00 | 97 | 1018.9 |
| 20260507095316 | 11 | 107 | 3.2 | 3.2 | 0.00 | 0.00 | 0.00 | 97 | 1018.9 |
| 20260507094814 | 11 | 95 | 0.0 | 3.2 | 0.00 | 0.00 | 0.00 | 97 | 1019.0 |
| 20260507094310 | 10 | 99 | 0.0 | 3.2 | 0.00 | 0.00 | 0.00 | 97 | 1019.0 |
| 20260507093807 | 11 | 111 | 3.2 | 3.2 | 0.00 | 0.00 | 0.00 | 97 | 1018.9 |
| 20260507093306 | 11 | 114 | 0.0 | 3.2 | 0.00 | 0.00 | 0.00 | 97 | 1018.9 |
| 20260507092803 | 11 | 80 | 0.0 | 3.2 | 0.00 | 0.00 | 0.00 | 97 | 1018.9 |
| 20260507092259 | 11 | 121 | 0.0 | 4.8 | 0.00 | 0.00 | 0.00 | 97 | 1018.9 |
| 20260507091756 | 11 | 81 | 0.0 | 3.2 | 0.00 | 0.00 | 0.00 | 97 | 1019.1 |
| 20260507091253 | 11 | 103 | 0.0 | 3.2 | 0.00 | 0.00 | 0.00 | 97 | 1019.1 |
| 20260507090748 | 11 | 95 | 1.6 | 3.2 | 0.00 | 0.00 | 0.00 | 97 | 1019.2 |
| 20260507090245 | 11 | 140 | 1.6 | 3.2 | 0.00 | 0.00 | 0.00 | 97 | 1019.3 |
| 20260507085742 | 11 | 110 | 3.2 | 3.2 | 0.00 | 0.00 | 0.00 | 97 | 1019.1 |
| 20260507085239 | 11 | 112 | 3.2 | 3.2 | 0.00 | 0.00 | 0.00 | 97 | 1019.2 |
| 20260507084736 | 11 | 111 | 0.0 | 3.2 | 0.00 | 0.00 | 0.00 | 97 | 1019.1 |
| 20260507084232 | 11 | 164 | 0.0 | 3.2 | 0.00 | 0.00 | 0.00 | 97 | 1019.4 |
| 20260507083730 | 11 | 135 | 0.0 | 3.2 | 0.00 | 0.00 | 0.00 | 97 | 1019.4 |
| 20260507083226 | 11 | 102 | 0.0 | 3.2 | 0.00 | 0.00 | 0.00 | 97 | 1019.5 |
| 20260507082722 | 11 | 134 | 3.2 | 3.2 | 0.00 | 0.00 | 0.00 | 97 | 1019.3 |
| 20260507082218 | 11 | 52 | 1.6 | 3.2 | 0.00 | 0.00 | 0.00 | 96 | 1019.5 |
| 20260507081715 | 11 | 98 | 1.6 | 3.2 | 0.00 | 0.00 | 0.00 | 96 | 1019.6 |
| 20260507081211 | 11 | 100 | 3.2 | 3.2 | 0.00 | 0.00 | 0.00 | 96 | 1019.6 |
| 20260507080708 | 11 | 149 | 3.2 | 4.8 | 0.00 | 0.00 | 0.00 | 96 | 1019.8 |
| 20260507080204 | 11 | 108 | 1.6 | 3.2 | 0.00 | 0.00 | 0.00 | 96 | 1019.7 |
| 20260507075700 | 12 | 95 | 3.2 | 3.2 | 0.00 | 0.00 | 0.00 | 96 | 1019.7 |
| 20260507075156 | 11 | 85 | 1.6 | 3.2 | 0.00 | 0.00 | 0.00 | 96 | 1019.8 |
| 20260507074652 | 11 | 78 | 0.0 | 3.2 | 0.00 | 0.00 | 0.00 | 96 | 1019.8 |
| 20260507074151 | 11 | 96 | 1.6 | 4.8 | 0.00 | 0.00 | 0.00 | 96 | 1019.8 |
| 20260507073647 | 11 | 113 | 1.6 | 3.2 | 0.00 | 0.00 | 0.00 | 96 | 1019.7 |
| 20260507073143 | 11 | 115 | 1.6 | 3.2 | 0.00 | 0.00 | 0.00 | 96 | 1019.8 |
| 20260507072641 | 11 | 114 | 3.2 | 3.2 | 0.00 | 0.00 | 0.00 | 96 | 1019.9 |
| 20260507072138 | 12 | 113 | 3.2 | 3.2 | 0.00 | 0.00 | 0.00 | 96 | 1019.9 |
| 20260507071636 | 12 | 110 | 3.2 | 3.2 | 0.00 | 0.00 | 0.00 | 96 | 1019.9 |
| 20260507071132 | 12 | 80 | 3.2 | 3.2 | 0.00 | 0.00 | 0.00 | 96 | 1019.8 |
| 20260507070629 | 12 | 86 | 3.2 | 4.8 | 0.00 | 0.00 | 0.00 | 95 | 1019.8 |
| 20260507070126 | 12 | 133 | 3.2 | 3.2 | 0.00 | 0.00 | 0.00 | 95 | 1019.8 |
| 20260507065622 | 12 | 80 | 1.6 | 3.2 | 0.00 | 0.00 | 0.00 | 95 | 1019.9 |
| 20260507065119 | 12 | 96 | 3.2 | 4.8 | 0.00 | 0.00 | 0.00 | 95 | 1020.0 |
| 20260507064617 | 12 | 122 | 3.2 | 3.2 | 0.00 | 0.00 | 0.00 | 95 | 1019.9 |
| 20260507064116 | 12 | 63 | 3.2 | 3.2 | 0.00 | 0.00 | 0.00 | 95 | 1019.9 |
| 20260507063613 | 12 | 74 | 3.2 | 3.2 | 0.00 | 0.00 | 0.00 | 95 | 1020.1 |
| 20260507063110 | 12 | 91 | 3.2 | 3.2 | 0.00 | 0.00 | 0.00 | 94 | 1020.2 |
| 20260507062606 | 12 | 104 | 1.6 | 4.8 | 0.00 | 0.00 | 0.00 | 94 | 1020.1 |
| 20260507062104 | 12 | 110 | 1.6 | 3.2 | 0.00 | 0.00 | 0.00 | 94 | 1020.0 |
| 20260507061601 | 12 | 73 | 1.6 | 3.2 | 0.00 | 0.00 | 0.00 | 94 | 1019.8 |
| 20260507061100 | 12 | 61 | 3.2 | 3.2 | 0.00 | 0.00 | 0.00 | 94 | 1020.1 |
| 20260507060557 | 12 | 129 | 1.6 | 3.2 | 0.00 | 0.00 | 0.00 | 94 | 1020.1 |
| 20260507060053 | 12 | 119 | 3.2 | 3.2 | 0.00 | 0.00 | 0.00 | 94 | 1019.9 |
| 20260507055553 | 13 | 105 | 3.2 | 3.2 | 0.00 | 0.00 | 0.00 | 94 | 1020.1 |
| 20260507055050 | 13 | 121 | 3.2 | 3.2 | 0.00 | 0.00 | 0.00 | 94 | 1020.1 |
| 20260507054546 | 13 | 70 | 3.2 | 4.8 | 0.00 | 0.00 | 0.00 | 93 | 1019.9 |
| 20260507054043 | 13 | 88 | 3.2 | 3.2 | 0.00 | 0.00 | 0.00 | 93 | 1019.9 |
| 20260507053541 | 13 | 77 | 0.0 | 4.8 | 0.00 | 0.00 | 0.00 | 93 | 1020.2 |
| 20260507053040 | 13 | 117 | 1.6 | 3.2 | 0.00 | 0.00 | 0.00 | 92 | 1020.0 |
| 20260507052537 | 13 | 95 | 3.2 | 4.8 | 0.00 | 0.00 | 0.00 | 92 | 1020.0 |
| 20260507052033 | 13 | 105 | 3.2 | 3.2 | 0.00 | 0.00 | 0.00 | 92 | 1020.3 |
| 20260507051532 | 13 | 109 | 1.6 | 3.2 | 0.00 | 0.00 | 0.00 | 92 | 1020.0 |
| 20260507051028 | 13 | 59 | 3.2 | 4.8 | 0.00 | 0.00 | 0.00 | 92 | 1020.0 |
| 20260507050524 | 13 | 76 | 3.2 | 3.2 | 0.00 | 0.00 | 0.00 | 91 | 1020.1 |
| 20260507050021 | 13 | 56 | 1.6 | 3.2 | 0.00 | 0.00 | 0.00 | 91 | 1019.9 |
| 20260507045518 | 13 | 99 | 1.6 | 3.2 | 0.00 | 0.00 | 0.00 | 91 | 1020.1 |
| 20260507045015 | 13 | 100 | 1.6 | 3.2 | 0.00 | 0.00 | 0.00 | 91 | 1019.9 |
| 20260507044512 | 14 | 93 | 3.2 | 3.2 | 0.00 | 0.00 | 0.00 | 91 | 1020.1 |
| 20260507044008 | 14 | 94 | 3.2 | 3.2 | 0.00 | 0.00 | 0.00 | 90 | 1020.1 |
| 20260507043504 | 14 | 123 | 1.6 | 3.2 | 0.00 | 0.00 | 0.00 | 90 | 1019.8 |
| 20260507043001 | 14 | 117 | 0.0 | 3.2 | 0.00 | 0.00 | 0.00 | 89 | 1019.9 |
| 20260507042458 | 14 | 111 | 0.0 | 3.2 | 0.00 | 0.00 | 0.00 | 89 | 1019.9 |
| 20260507041953 | 15 | 106 | 1.6 | 3.2 | 0.00 | 0.00 | 0.00 | 88 | 1019.7 |
| 20260507041450 | 15 | 86 | 1.6 | 3.2 | 0.00 | 0.00 | 0.00 | 87 | 1019.8 |
| 20260507040947 | 15 | 140 | 3.2 | 3.2 | 0.00 | 0.00 | 0.00 | 87 | 1019.8 |
| 20260507040443 | 15 | 89 | 0.0 | 3.2 | 0.00 | 0.00 | 0.00 | 87 | 1019.8 |
| 20260507035939 | 15 | 111 | 3.2 | 3.2 | 0.00 | 0.00 | 0.00 | 87 | 1019.6 |
| 20260507035436 | 16 | 159 | 1.6 | 3.2 | 0.00 | 0.00 | 0.00 | 87 | 1019.8 |
| 20260507034933 | 16 | 181 | 3.2 | 4.8 | 0.00 | 0.00 | 0.00 | 87 | 1019.7 |
| 20260507034430 | 16 | 164 | 0.0 | 3.2 | 0.00 | 0.00 | 0.00 | 87 | 1019.6 |
| 20260507033928 | 16 | 169 | 0.0 | 3.2 | 0.00 | 0.00 | 0.00 | 87 | 1019.6 |
| 20260507033425 | 16 | 189 | 3.2 | 4.8 | 0.00 | 0.00 | 0.00 | 86 | 1019.8 |
| 20260507032922 | 16 | 133 | 0.0 | 4.8 | 0.00 | 0.00 | 0.00 | 86 | 1019.5 |
| 20260507032419 | 16 | 211 | 1.6 | 3.2 | 0.00 | 0.00 | 0.00 | 85 | 1019.3 |
| 20260507031915 | 16 | 137 | 1.6 | 4.8 | 0.00 | 0.00 | 0.00 | 85 | 1019.4 |
| 20260507031412 | 16 | 161 | 1.6 | 4.8 | 0.00 | 0.00 | 0.00 | 84 | 1019.4 |
| 20260507030908 | 16 | 211 | 1.6 | 4.8 | 0.00 | 0.00 | 0.00 | 83 | 1019.2 |
| 20260507030406 | 16 | 205 | 3.2 | 3.2 | 0.00 | 0.00 | 0.00 | 83 | 1019.3 |
| 20260507025902 | 16 | 151 | 1.6 | 6.4 | 0.00 | 0.00 | 0.00 | 82 | 1019.2 |
| 20260507025400 | 17 | 91 | 1.6 | 3.2 | 0.00 | 0.00 | 0.00 | 80 | 1019.2 |
| 20260507024858 | 17 | 164 | 1.6 | 3.2 | 0.00 | 0.00 | 0.00 | 79 | 1019.3 |
| 20260507024355 | 17 | 122 | 3.2 | 4.8 | 0.00 | 0.00 | 0.00 | 77 | 1019.0 |
| 20260507023850 | 17 | 202 | 0.0 | 3.2 | 0.00 | 0.00 | 0.00 | 76 | 1019.2 |
| 20260507023347 | 17 | 68 | 0.0 | 4.8 | 0.00 | 0.00 | 0.00 | 75 | 1019.0 |
| 20260507022845 | 17 | 154 | 3.2 | 3.2 | 0.00 | 0.00 | 0.00 | 76 | 1019.0 |
| 20260507022341 | 17 | 214 | 4.8 | 6.4 | 0.00 | 0.00 | 0.00 | 76 | 1019.1 |
| 20260507021837 | 17 | 138 | 1.6 | 4.8 | 0.00 | 0.00 | 0.00 | 76 | 1019.0 |
| 20260507021333 | 18 | 205 | 3.2 | 9.7 | 0.00 | 0.00 | 0.00 | 74 | 1018.9 |
| 20260507020831 | 18 | 196 | 3.2 | 6.4 | 0.00 | 0.00 | 0.00 | 72 | 1018.9 |
| 20260507020327 | 18 | 211 | 3.2 | 9.7 | 0.00 | 0.00 | 0.00 | 69 | 1018.7 |
| 20260507015824 | 19 | 103 | 0.0 | 6.4 | 0.00 | 0.00 | 0.00 | 70 | 1018.8 |
| 20260507015322 | 18 | 199 | 3.2 | 9.7 | 0.00 | 0.00 | 0.00 | 69 | 1018.9 |
| 20260507014819 | 20 | 195 | 4.8 | 8.0 | 0.00 | 0.00 | 0.00 | 67 | 1018.8 |
| 20260507014315 | 18 | 202 | 3.2 | 11.3 | 0.00 | 0.00 | 0.00 | 70 | 1018.8 |
| 20260507013812 | 19 | 175 | 3.2 | 12.9 | 0.00 | 0.00 | 0.00 | 68 | 1018.9 |
| 20260507013309 | 20 | 203 | 6.4 | 8.0 | 0.00 | 0.00 | 0.00 | 69 | 1018.9 |
| 20260507012807 | 20 | 7 | 0.0 | 4.8 | 0.00 | 0.00 | 0.00 | 68 | 1018.8 |
| 20260507012305 | 20 | 221 | 6.4 | 8.0 | 0.00 | 0.00 | 0.00 | 66 | 1018.9 |
| 20260507011800 | 20 | 224 | 6.4 | 9.7 | 0.00 | 0.00 | 0.00 | 69 | 1019.0 |
| 20260507011256 | 20 | 226 | 6.4 | 8.0 | 0.00 | 0.00 | 0.00 | 69 | 1018.8 |
| 20260507010755 | 20 | 178 | 0.0 | 11.3 | 0.00 | 0.00 | 0.00 | 69 | 1018.6 |
| 20260507010252 | 20 | 180 | 1.6 | 4.8 | 0.00 | 0.00 | 0.00 | 69 | 1018.6 |
| 20260507005749 | 20 | 198 | 1.6 | 6.4 | 0.00 | 0.00 | 0.00 | 69 | 1018.7 |
| 20260507005246 | 20 | 203 | 0.0 | 14.5 | 0.00 | 0.00 | 0.00 | 70 | 1018.8 |
| 20260507004742 | 20 | 236 | 6.4 | 11.3 | 0.00 | 0.00 | 0.00 | 70 | 1018.7 |
| 20260507004240 | 20 | 239 | 8.0 | 9.7 | 0.00 | 0.00 | 0.00 | 70 | 1018.7 |
| 20260507003736 | 20 | 197 | 6.4 | 11.3 | 0.00 | 0.00 | 0.00 | 68 | 1018.6 |
| 20260507003231 | 21 | 269 | 0.0 | 6.4 | 0.00 | 0.00 | 0.00 | 67 | 1018.8 |
| 20260507002728 | 20 | 252 | 1.6 | 9.7 | 0.00 | 0.00 | 0.00 | 68 | 1018.6 |
| 20260507002224 | 22 | 291 | 3.2 | 4.8 | 0.00 | 0.00 | 0.00 | 63 | 1018.7 |
| 20260507001721 | 21 | 225 | 9.7 | 9.7 | 0.00 | 0.00 | 0.00 | 64 | 1018.6 |
| 20260507001218 | 20 | 227 | 6.4 | 17.7 | 0.00 | 0.00 | 0.00 | 68 | 1018.6 |
| 20260507000714 | 21 | 228 | 6.4 | 12.9 | 0.00 | 0.00 | 0.00 | 63 | 1018.4 |
| 20260507000212 | 22 | 278 | 3.2 | 6.4 | 0.00 | 0.00 | 0.00 | 60 | 1018.6 |
| 20260506235707 | 22 | 272 | 3.2 | 6.4 | 0.00 | 0.00 | 0.00 | 60 | 1018.3 |
| 20260506235202 | 21 | 264 | 3.2 | 14.5 | 0.00 | 0.00 | 0.00 | 64 | 1018.3 |
| 20260506234700 | 20 | 234 | 11.3 | 20.9 | 0.00 | 0.00 | 0.00 | 64 | 1018.4 |
| 20260506234157 | 21 | 224 | 17.7 | 22.5 | 0.00 | 0.00 | 0.00 | 61 | 1018.2 |
| 20260506233654 | 21 | 212 | 3.2 | 17.7 | 0.00 | 0.00 | 0.00 | 63 | 1018.3 |
| 20260506233151 | 21 | 32 | 1.6 | 16.1 | 0.00 | 0.00 | 0.00 | 61 | 1018.2 |
| 20260506232647 | 22 | 238 | 3.2 | 14.5 | 0.00 | 0.00 | 0.00 | 60 | 1018.2 |
| 20260506232142 | 22 | 265 | 1.6 | 16.1 | 0.00 | 0.00 | 0.00 | 59 | 1018.3 |
| 20260506231640 | 22 | 236 | 4.8 | 19.3 | 0.00 | 0.00 | 0.00 | 59 | 1018.5 |
| 20260506231138 | 22 | 265 | 3.2 | 8.0 | 0.00 | 0.00 | 0.00 | 59 | 1018.4 |
| 20260506230635 | 22 | 242 | 3.2 | 12.9 | 0.00 | 0.00 | 0.00 | 61 | 1018.5 |
| 20260506230132 | 21 | 24 | 0.0 | 9.7 | 0.00 | 0.00 | 0.00 | 62 | 1018.5 |
| 20260506225628 | 21 | 233 | 9.7 | 17.7 | 0.00 | 0.00 | 0.00 | 64 | 1018.5 |
| 20260506225125 | 21 | 261 | 1.6 | 19.3 | 0.00 | 0.00 | 0.00 | 64 | 1018.5 |
| 20260506224621 | 22 | 245 | 1.6 | 6.4 | 0.00 | 0.00 | 0.00 | 60 | 1018.6 |
| 20260506224118 | 20 | 218 | 1.6 | 20.9 | 0.00 | 0.00 | 0.00 | 67 | 1018.8 |
| 20260506223614 | 22 | 269 | 0.0 | 9.7 | 0.00 | 0.00 | 0.00 | 61 | 1018.6 |
| 20260506223110 | 22 | 279 | 1.6 | 6.4 | 0.00 | 0.00 | 0.00 | 60 | 1018.8 |
| 20260506222607 | 21 | 208 | 3.2 | 8.0 | 0.00 | 0.00 | 0.00 | 63 | 1018.7 |
| 20260506222104 | 21 | 226 | 14.5 | 20.9 | 0.00 | 0.00 | 0.00 | 63 | 1018.7 |
| 20260506221602 | 21 | 256 | 6.4 | 17.7 | 0.00 | 0.00 | 0.00 | 65 | 1018.8 |
| 20260506221059 | 21 | 240 | 3.2 | 11.3 | 0.00 | 0.00 | 0.00 | 63 | 1018.7 |
| 20260506220555 | 21 | 269 | 4.8 | 19.3 | 0.00 | 0.00 | 0.00 | 62 | 1018.8 |
| 20260506220051 | 21 | 328 | 3.2 | 8.0 | 0.00 | 0.00 | 0.00 | 62 | 1018.8 |
| 20260506215548 | 21 | 230 | 3.2 | 16.1 | 0.00 | 0.00 | 0.00 | 63 | 1018.9 |
| 20260506215043 | 21 | 43 | 1.6 | 9.7 | 0.00 | 0.00 | 0.00 | 62 | 1019.0 |
| 20260506214541 | 21 | 222 | 9.7 | 20.9 | 0.00 | 0.00 | 0.00 | 64 | 1018.9 |
| 20260506214038 | 22 | 222 | 3.2 | 14.5 | 0.00 | 0.00 | 0.00 | 61 | 1018.9 |
| 20260506213536 | 22 | 275 | 3.2 | 11.3 | 0.00 | 0.00 | 0.00 | 60 | 1019.0 |
| 20260506213033 | 22 | 250 | 6.4 | 11.3 | 0.00 | 0.00 | 0.00 | 60 | 1019.1 |
| 20260506212529 | 22 | 246 | 3.2 | 11.3 | 0.00 | 0.00 | 0.00 | 60 | 1019.3 |
| 20260506212024 | 21 | 241 | 4.8 | 16.1 | 0.00 | 0.00 | 0.00 | 64 | 1019.2 |
| 20260506211520 | 21 | 233 | 14.5 | 16.1 | 0.00 | 0.00 | 0.00 | 62 | 1019.2 |
| 20260506211018 | 21 | 230 | 6.4 | 19.3 | 0.00 | 0.00 | 0.00 | 63 | 1019.1 |
| 20260506210514 | 21 | 249 | 9.7 | 11.3 | 0.00 | 0.00 | 0.00 | 63 | 1019.1 |
| 20260506210011 | 21 | 266 | 6.4 | 17.7 | 0.00 | 0.00 | 0.00 | 64 | 1019.3 |
| 20260506205508 | 21 | 147 | 3.2 | 14.5 | 0.00 | 0.00 | 0.00 | 63 | 1019.1 |
| 20260506205003 | 21 | 233 | 17.7 | 24.1 | 0.00 | 0.00 | 0.00 | 64 | 1019.3 |
| 20260506204502 | 20 | 235 | 11.3 | 24.1 | 0.00 | 0.00 | 0.00 | 64 | 1019.2 |
| 20260506203958 | 20 | 229 | 9.7 | 17.7 | 0.00 | 0.00 | 0.00 | 64 | 1019.3 |
| 20260506203456 | 21 | 256 | 8.0 | 20.9 | 0.00 | 0.00 | 0.00 | 62 | 1019.5 |
| 20260506202947 | 21 | 242 | 3.2 | 14.5 | 0.00 | 0.00 | 0.00 | 63 | 1019.7 |
| 20260506202444 | 21 | 225 | 3.2 | 8.0 | 0.00 | 0.00 | 0.00 | 62 | 1019.5 |
| 20260506201940 | 20 | 217 | 3.2 | 20.9 | 0.00 | 0.00 | 0.00 | 65 | 1019.5 |
| 20260506201438 | 21 | 212 | 0.0 | 16.1 | 0.00 | 0.00 | 0.00 | 63 | 1019.5 |
| 20260506200935 | 21 | 240 | 4.8 | 17.7 | 0.00 | 0.00 | 0.00 | 64 | 1019.3 |
| 20260506200431 | 21 | 327 | 3.2 | 9.7 | 0.00 | 0.00 | 0.00 | 62 | 1019.6 |
| 20260506195928 | 21 | 232 | 6.4 | 6.4 | 0.00 | 0.00 | 0.00 | 62 | 1019.5 |
| 20260506195425 | 21 | 266 | 0.0 | 6.4 | 0.00 | 0.00 | 0.00 | 61 | 1019.6 |
| 20260506194921 | 21 | 261 | 0.0 | 9.7 | 0.00 | 0.00 | 0.00 | 61 | 1019.9 |
| 20260506194418 | 21 | 234 | 3.2 | 9.7 | 0.00 | 0.00 | 0.00 | 61 | 1019.9 |
| 20260506193915 | 21 | 248 | 4.8 | 14.5 | 0.00 | 0.00 | 0.00 | 61 | 1019.7 |
| 20260506193412 | 22 | 261 | 3.2 | 8.0 | 0.00 | 0.00 | 0.00 | 60 | 1019.7 |
| 20260506192908 | 21 | 112 | 0.0 | 17.7 | 0.00 | 0.00 | 0.00 | 62 | 1019.9 |
| 20260506192405 | 22 | 211 | 3.2 | 16.1 | 0.00 | 0.00 | 0.00 | 60 | 1019.8 |
| 20260506191902 | 21 | 233 | 14.5 | 14.5 | 0.00 | 0.00 | 0.00 | 61 | 1019.8 |
| 20260506191358 | 21 | 262 | 6.4 | 16.1 | 0.00 | 0.00 | 0.00 | 62 | 1020.0 |
| 20260506190855 | 21 | 263 | 4.8 | 8.0 | 0.00 | 0.00 | 0.00 | 62 | 1019.9 |
| 20260506190352 | 21 | 216 | 8.0 | 14.5 | 0.00 | 0.00 | 0.00 | 62 | 1019.8 |
| 20260506185848 | 21 | 178 | 3.2 | 9.7 | 0.00 | 0.00 | 0.00 | 63 | 1019.9 |
| 20260506185345 | 20 | 266 | 3.2 | 17.7 | 0.00 | 0.00 | 0.00 | 65 | 1020.1 |
| 20260506184842 | 21 | 223 | 1.6 | 14.5 | 0.00 | 0.00 | 0.00 | 63 | 1020.0 |
| 20260506184339 | 21 | 194 | 3.2 | 9.7 | 0.00 | 0.00 | 0.00 | 62 | 1020.0 |
| 20260506183837 | 20 | 233 | 8.0 | 17.7 | 0.00 | 0.00 | 0.00 | 64 | 1020.2 |
| 20260506183332 | 21 | 216 | 6.4 | 14.5 | 0.00 | 0.00 | 0.00 | 63 | 1020.2 |
| 20260506182830 | 20 | 233 | 6.4 | 9.7 | 0.00 | 0.00 | 0.00 | 64 | 1020.2 |
| 20260506182326 | 20 | 227 | 12.9 | 17.7 | 0.00 | 0.00 | 0.00 | 64 | 1020.1 |
| 20260506181824 | 20 | 218 | 8.0 | 14.5 | 0.00 | 0.00 | 0.00 | 63 | 1020.2 |
| 20260506181322 | 21 | 54 | 0.0 | 8.0 | 0.00 | 0.00 | 0.00 | 63 | 1020.2 |
| 20260506180819 | 21 | 215 | 9.7 | 9.7 | 0.00 | 0.00 | 0.00 | 61 | 1020.3 |
| 20260506180315 | 21 | 299 | 1.6 | 11.3 | 0.00 | 0.00 | 0.00 | 61 | 1020.5 |
| 20260506175811 | 21 | 169 | 0.0 | 6.4 | 0.00 | 0.00 | 0.00 | 60 | 1020.4 |
| 20260506175308 | 20 | 230 | 4.8 | 8.0 | 0.00 | 0.00 | 0.00 | 62 | 1020.3 |
| 20260506174800 | 20 | 242 | 3.2 | 8.0 | 0.00 | 0.00 | 0.00 | 61 | 1020.4 |
| 20260506174258 | 20 | 275 | 3.2 | 12.9 | 0.00 | 0.00 | 0.00 | 59 | 1020.4 |
| 20260506173755 | 20 | 37 | 1.6 | 6.4 | 0.00 | 0.00 | 0.00 | 58 | 1020.4 |
| 20260506173252 | 21 | 268 | 0.0 | 6.4 | 0.00 | 0.00 | 0.00 | 58 | 1020.7 |
| 20260506172749 | 21 | 205 | 0.0 | 4.8 | 0.00 | 0.00 | 0.00 | 58 | 1020.7 |
| 20260506172245 | 20 | 341 | 3.2 | 3.2 | 0.00 | 0.00 | 0.00 | 60 | 1020.9 |
| 20260506171743 | 20 | 256 | 0.0 | 8.0 | 0.00 | 0.00 | 0.00 | 63 | 1020.8 |
| 20260506171240 | 20 | 310 | 3.2 | 8.0 | 0.00 | 0.00 | 0.00 | 62 | 1020.7 |
| 20260506170738 | 18 | 268 | 3.2 | 4.8 | 0.00 | 0.00 | 0.00 | 66 | 1020.7 |
| 20260506170234 | 20 | 227 | 1.6 | 4.8 | 0.00 | 0.00 | 0.00 | 64 | 1020.7 |
| 20260506165732 | 20 | 261 | 0.0 | 4.8 | 0.00 | 0.00 | 0.00 | 64 | 1020.8 |
| 20260506165229 | 20 | 21 | 1.6 | 6.4 | 0.00 | 0.00 | 0.00 | 62 | 1020.9 |
| 20260506164726 | 19 | 265 | 6.4 | 8.0 | 0.00 | 0.00 | 0.00 | 64 | 1020.8 |
| 20260506164223 | 18 | 330 | 3.2 | 6.4 | 0.00 | 0.00 | 0.00 | 65 | 1020.8 |
| 20260506163720 | 19 | 243 | 1.6 | 6.4 | 0.00 | 0.00 | 0.00 | 63 | 1020.8 |
| 20260506163215 | 18 | 260 | 3.2 | 4.8 | 0.00 | 0.00 | 0.00 | 64 | 1020.8 |
| 20260506162711 | 18 | 0 | 3.2 | 4.8 | 0.00 | 0.00 | 0.00 | 68 | 1020.8 |
| 20260506162208 | 18 | 219 | 3.2 | 6.4 | 0.00 | 0.00 | 0.00 | 68 | 1020.7 |
| 20260506161705 | 18 | 190 | 0.0 | 3.2 | 0.00 | 0.00 | 0.00 | 67 | 1020.8 |
| 20260506161202 | 18 | 230 | 6.4 | 6.4 | 0.00 | 0.00 | 0.00 | 69 | 1020.8 |
| 20260506160659 | 18 | 14 | 4.8 | 4.8 | 0.00 | 0.00 | 0.00 | 69 | 1020.9 |
| 20260506160156 | 18 | 11 | 3.2 | 6.4 | 0.00 | 0.00 | 0.00 | 70 | 1021.0 |
| 20260506155655 | 18 | 67 | 1.6 | 3.2 | 0.00 | 0.00 | 0.00 | 71 | 1020.8 |
| 20260506155152 | 17 | 6 | 4.8 | 4.8 | 0.00 | 0.00 | 0.00 | 71 | 1020.9 |
| 20260506153259 | 18 | 51 | 3.2 | 6.4 | 0.00 | 0.00 | 0.00 | 70 | 1020.8 |
| 20260506152756 | 17 | 73 | 0.0 | 3.2 | 0.00 | 0.00 | 0.00 | 72 | 1020.9 |
| 20260506152253 | 17 | 50 | 0.0 | 4.8 | 0.00 | 0.00 | 0.00 | 72 | 1020.9 |
| 20260506151752 | 17 | 27 | 4.8 | 4.8 | 0.00 | 0.00 | 0.00 | 72 | 1021.0 |
| 20260506151248 | 17 | 67 | 3.2 | 6.4 | 0.00 | 0.00 | 0.00 | 71 | 1020.8 |
| 20260506150745 | 17 | 56 | 3.2 | 6.4 | 0.00 | 0.00 | 0.00 | 72 | 1020.9 |
| 20260506150242 | 17 | 64 | 3.2 | 4.8 | 0.00 | 0.00 | 0.00 | 73 | 1020.8 |
| 20260506145739 | 16 | 106 | 3.2 | 4.8 | 0.00 | 0.00 | 0.00 | 74 | 1020.9 |
| 20260506145235 | 16 | 55 | 3.2 | 4.8 | 0.00 | 0.00 | 0.00 | 75 | 1020.9 |
| 20260506144733 | 16 | 57 | 4.8 | 4.8 | 0.00 | 0.00 | 0.00 | 74 | 1020.9 |
| 20260506144230 | 17 | 61 | 4.8 | 4.8 | 0.00 | 0.00 | 0.00 | 73 | 1020.9 |
| 20260506143727 | 16 | 120 | 3.2 | 3.2 | 0.00 | 0.00 | 0.00 | 79 | 1020.8 |
| 20260506143225 | 15 | 74 | 3.2 | 4.8 | 0.00 | 0.00 | 0.00 | 81 | 1021.0 |
| 20260506142723 | 13 | 77 | 3.2 | 4.8 | 0.00 | 0.00 | 0.00 | 84 | 1020.9 |
| 20260506142221 | 13 | 68 | 3.2 | 6.4 | 0.00 | 0.00 | 0.00 | 83 | 1020.7 |
| 20260506141719 | 14 | 113 | 4.8 | 4.8 | 0.00 | 0.00 | 0.00 | 80 | 1020.8 |
| 20260506141217 | 15 | 125 | 3.2 | 4.8 | 0.00 | 0.00 | 0.00 | 82 | 1020.7 |
| 20260506140714 | 14 | 106 | 3.2 | 3.2 | 0.00 | 0.00 | 0.00 | 85 | 1020.9 |
| 20260506140211 | 13 | 138 | 0.0 | 3.2 | 0.00 | 0.00 | 0.00 | 90 | 1020.8 |
| 20260506135708 | 13 | 78 | 3.2 | 3.2 | 0.00 | 0.00 | 0.00 | 93 | 1020.9 |
| 20260506135204 | 12 | 117 | 1.6 | 4.8 | 0.00 | 0.00 | 0.00 | 95 | 1020.8 |
| 20260506134701 | 11 | 89 | 0.0 | 4.8 | 0.00 | 0.00 | 0.00 | 96 | 1020.7 |
| 20260506134157 | 11 | 108 | 3.2 | 4.8 | 0.00 | 0.00 | 0.00 | 97 | 1020.6 |
| 20260506133654 | 10 | 102 | 4.8 | 4.8 | 0.00 | 0.00 | 0.00 | 97 | 1020.7 |
| 20260506133151 | 10 | 110 | 3.2 | 3.2 | 0.00 | 0.00 | 0.00 | 97 | 1020.6 |
| 20260506132648 | 10 | 64 | 1.6 | 3.2 | 0.00 | 0.00 | 0.00 | 97 | 1020.6 |
| 20260506132145 | 10 | 106 | 0.0 | 4.8 | 0.00 | 0.00 | 0.00 | 97 | 1020.5 |
| 20260506131643 | 9 | 123 | 1.6 | 4.8 | 0.00 | 0.00 | 0.00 | 97 | 1020.5 |